Simultaneous Nadir Overpasses (SNOs) Predictions

Prediction of SNOs between AQUA and LANDSAT-8 Satellite Orbit:

Table of predicted SNOs for the next 14.0 days since TLE Epoch: 1/5/2025
Index Date (AQUA) Time (AQUA) Lat,Lon (AQUA) SZA (AQUA ) Date (LANDSAT-8) Time (LANDSAT-8) Lat,Lon (LANDSAT-8) SZA (LANDSAT-8 ) Distance(km) Time Diff (sec)
1 01/17/2025 09:45:07 74.07, 39.95 94.66 01/17/2025 09:44:02 74.02, 37.15 94.59 85.83 65
2 01/17/2025 10:34:32 -74.41,-153.21 85.01 01/17/2025 10:33:22 -74.42,-154.29 85.02 32.34 70
3 01/17/2025 11:23:56 74.61, 13.97 95.18 01/17/2025 11:22:44 74.59, 13.76 95.15 6.63 72
4 01/17/2025 12:13:15 -74.65,-178.45 84.80 01/17/2025 12:12:11 -74.63,-178.51 84.82 3.12 64
5 01/17/2025 13:02:35 74.64, -10.76 95.19 01/17/2025 13:01:36 74.64, -10.83 95.19 2.13 59
6
